Location: Les Coudrans
(46.1056°N, 1.1158°W)
Time: 15:25:20
(UTC+00:00)

Cosmos 2322 - Pass Details

Date: 03 March 2021
Orbit: 842 x 853 km, 71.0° (Epoch: 14 April)

Event Time Altitude Azimuth Distance (km) Brightness Sun altitude
Rises 19:42:45 0° 195° (SSW) 3,408 6.9 -19.6°
Reaches altitude 10° 19:45:12 10° 193° (SSW) 2,476 6.1 -20.0°
Maximum altitude 19:50:50 67° 112° (ESE) 927 3.6 -21.0°
Drops below altitude 10° 19:56:30 10° 31° (NNE) 2,490 6.0 -21.9°
Sets 19:58:58 0° 29° (NNE) 3,429 6.7 -22.3°
